This is the latest recevied weather packets stored in our database for station/object WB5HZM-3. If no packets are shown the sender has not sent any weather packets the latest 1 day(s).
| Time | Temp. | Humidity | Pressure | Rain* | Wind** | Luminosity | Snow |
|---|---|---|---|---|---|---|---|
| 1778010178 | 28.33° C | 76% | 1009.4 hPa | 0 mm | 0.89 m/s, 238° | - | - |
| 1778009575 | 27.78° C | 77% | 1009.4 hPa | 0 mm | 0.89 m/s, 126° | - | - |
| 1778008975 | 27.78° C | 76% | 1009.4 hPa | 0 mm | 1.79 m/s, 209° | - | - |
| 1778008371 | 27.78° C | 77% | 1009.4 hPa | 0 mm | 1.79 m/s, 210° | - | - |
| 1778007785 | 27.78° C | 77% | 1009.6 hPa | 0 mm | 1.34 m/s, 203° | - | - |
| 1778007183 | 27.22° C | 78% | 1009.6 hPa | 0 mm | 1.34 m/s, 242° | - | - |
| 1778006579 | 27.22° C | 78% | 1009.7 hPa | 0 mm | 1.79 m/s, 166° | - | - |
| 1778005974 | 27.22° C | 79% | 1009.9 hPa | 0 mm | 0.89 m/s, 150° | - | - |
| 1778005373 | 26.67° C | 79% | 1009.9 hPa | 0 mm | 0.89 m/s, 228° | - | - |
| 1778004787 | 26.67° C | 79% | 1009.8 hPa | 0 mm | 0.89 m/s, 173° | - | - |
| 1778004182 | 26.67° C | 79% | 1009.9 hPa | 0 mm | 1.34 m/s, 242° | - | - |
| 1778003577 | 26.67° C | 80% | 1010 hPa | 0 mm | 1.34 m/s, 257° | - | - |
| 1778002974 | 26.67° C | 80% | 1010.1 hPa | 0 mm | 2.24 m/s, 156° | - | - |
| 1778002389 | 26.11° C | 81% | 1010.2 hPa | 0 mm | 0.45 m/s, 246° | - | - |
| 1778001784 | 25.56° C | 82% | 1010.1 hPa | 0 mm | 0.89 m/s, 175° | - | - |
| 1778001183 | 25.56° C | 82% | 1010.2 hPa | 0 mm | 0.89 m/s, 129° | - | - |
| 1778000577 | 25.56° C | 81% | 1010.3 hPa | 0 mm | 0.89 m/s, 181° | - | - |
| 1777999992 | 25.56° C | 81% | 1010.3 hPa | 0 mm | 0.89 m/s, 149° | - | - |
| 1777999388 | 25.56° C | 81% | 1010.3 hPa | 0 mm | 0.45 m/s, 300° | - | - |
| 1777998786 | 25.56° C | 81% | 1010.3 hPa | 0 mm | 0.89 m/s, 186° | - | - |
| 1777998182 | 25.56° C | 81% | 1010.4 hPa | 0 mm | 2.24 m/s, 166° | - | - |
| 1777997579 | 25.56° C | 81% | 1010.5 hPa | 0 mm | 1.79 m/s, 97° | - | - |
| 1777996979 | 25.56° C | 81% | 1010.4 hPa | 0 mm | 1.34 m/s, 179° | - | - |
| 1777996396 | 25.56° C | 82% | 1010.4 hPa | 0 mm | 0.89 m/s, 184° | - | - |
| 1777995791 | 25° C | 82% | 1010.3 hPa | 0 mm | 1.34 m/s, 202° | - | - |
* Rain latest hour (hover to see other rain measurements)
** Current wind speed in m/s (hover to see current wind gust speed)